Location: Napier
(39.4830°S, 176.9170°E)
Time: 03:19:33
(UTC+12:00)

Sich 1 - Pass Details

Date: 15 August 2020
Orbit: 593 x 626 km, 82.5° (Epoch: 20 September)

Event Time Altitude Azimuth Distance (km) Brightness Sun altitude
Rises 18:41:37 0° 182° (S) 2,905 6.5 -13.5°
Reaches altitude 10° 18:43:55 10° 175° (S) 1,997 5.6 -13.9°
Maximum altitude 18:48:12 47° 101° (E) 828 3.3 -14.8°
Drops below altitude 10° 18:52:27 10° 26° (NNE) 1,989 5.5 -15.6°
Sets 18:54:44 0° 20° (NNE) 2,891 6.3 -16.0°
